Home   Weather   Glace Bay   Past weeks

Flag for Canada Past Weather in Glace Bay, Nova Scotia, Canada — Yesterday and Last 2 Weeks

50 °F

Passing clouds.

Feels Like: 44 °F
Forecast: 44 / 53 °F
Wind: 17 mph from Southwest

Location: Sydney

Current Time: Oct 23, 2016 at 10:51:31 PM

Latest Report: Oct 23, 2016 at 10:00 PM

Visibility: 15 mi

Pressure: 29.44 "Hg

Humidity: 76%

Dew Point: 43 °F

Location of Glace BayLocation

Past Weather in Glace Bay — Graph


Glace Bay Temperature Yesterday

Maximum temperature yesterday: 66 °F (at 6:00 PM)
Minimum temperature yesterday: 57 °F (at 12:00 AM)
Average temperature yesterday: 62 °F

High & Low Weather Summary for the Past Weeks

High70 °F (Oct 9, 4:00 PM)100% (Oct 8, 9:00 PM)30.45 "Hg (Oct 8, 9:00 PM)
Low30 °F (Oct 16, 5:00 AM)42% (Oct 12, 1:00 PM)29.20 "Hg (Oct 22, 9:00 PM)
Average52 °F85%29.99 "Hg
* Reported Oct 8 9:00 PM — Oct 23 9:00 PM, Glace Bay, Weather by CustomWeather, © 2016

Note: Actual official high and low records may vary slightly from our data, if they occured in-between our weather recording intervals... More about our weather records


Glace Bay Weather History for the Previous 24 Hours

Scroll right to see more
Time TempWeatherWind HumidityBarometerVisibility
9:00 PM
Sun, Oct 23
50 °FPassing clouds.13 mph76%29.45 "Hg15 mi
8:00 PM52 °FPassing clouds.20 mph77%29.44 "Hg15 mi
7:00 PM52 °FPassing clouds.23 mph77%29.43 "Hg15 mi
6:00 PM54 °FPassing clouds.22 mph72%29.42 "Hg15 mi
5:00 PM55 °FPartly sunny.23 mph67%29.44 "Hg15 mi
4:00 PM59 °FPartly sunny.18 mph59%29.44 "Hg15 mi
3:00 PM59 °FPartly sunny.25 mph68%29.43 "Hg15 mi
2:00 PM59 °FPartly sunny.26 mph68%29.43 "Hg15 mi
1:00 PM59 °FPartly sunny.18 mph72%29.46 "Hg15 mi
12:00 PM59 °FPartly sunny.24 mph68%29.48 "Hg15 mi
11:00 AM59 °FPartly sunny.16 mph77%29.49 "Hg15 mi
10:00 AM57 °FBroken clouds.15 mph88%29.49 "Hg15 mi
9:00 AM57 °FPartly sunny.14 mph88%29.49 "Hg15 mi
8:00 AM57 °FPartly sunny.12 mph94%29.49 "Hg15 mi
7:00 AM59 °FPartly cloudy.10 mph88%29.49 "Hg15 mi
6:00 AM59 °FPassing clouds.12 mph88%29.49 "Hg15 mi
5:00 AM59 °FPassing clouds.13 mph94%29.47 "Hg15 mi
4:00 AM59 °FPassing clouds.8 mph94%29.46 "Hg15 mi
3:00 AM61 °FPassing clouds.14 mph94%29.46 "Hg15 mi
2:00 AM61 °FPassing clouds.18 mph100%29.44 "Hg15 mi
1:00 AM63 °FLow clouds.15 mph100%29.41 "Hg10 mi
12:00 AM66 °FPassing clouds.18 mph94%29.38 "Hg10 mi
11:00 PM
Sat, Oct 22
64 °FLow clouds.21 mph100%29.32 "Hg8 mi
10:50 PM64 °FLow clouds.26 mph100%29.30 "Hg8 mi
10:00 PM63 °FSprinkles. Fog.23 mph100%29.23 "Hg4 mi
Weather by CustomWeather, © 2016

See weather overviewHow to use our weather pages